Back to catalog

FENGYUN 1C DEB

AliveSSO
NORAD 30943·DEBRIS·🇨🇳 China

Launched May 10, 1999 from Taiyuan Satellite Launch Center

Loading…

Next Passes (next 24 hours)

TLE

AgingSource: Space-Track

Epoch: Sep 6, 2026, 05:58 UTC

1 30943U 99025BAH 26249.24884344  .00000464  00000-0  31273-3 0  9997
2 30943  98.7908 259.8062 0050518  36.8385 323.6236 14.04701003994979

Track FENGYUN 1C DEB in real time with AllMySat

Download on the App Store